一网星座-0516星 (ONEWEB-0516 )

导读 | 豆包AI

ONEWEB-0516是英国OneWeb星座的低轨通信卫星,于2022年10月22日发射入轨,归属英国政府部分控股的OneWeb公司。作为全球卫星互联网组网建设的一环,它运行在近地轨道,配备Ku/Ka波段天线,采用氙气电推进,依托OneWeb星座系统,可为偏远地区、海上空中载体及应急场景提供高速低延迟宽带通信服务,助力实现全球网络覆盖。

基本信息
目录编号:
54134
目录名称:
ONEWEB-0516
国际标识:
2022-138X
轨道中心:
EARTH
卫星名称:
一网星座-0516星
卫星全名:
一网星座-0516星 (ONEWEB-0516 )
卫星状态:
在轨 (已飞行1239 天)
发射日期:
2022-10-22 UTC
国别 :
英国 (GB)
星等 :
--
轨道信息
数据来源 国际轨道数据
星历时间: 2026-03-14T06:06:43+0800
8小时前
查看轨道信息
半长轴: 7563.91km
偏心率: 0.0001814
轨道倾角: 87.922°
近地点辐角 82.503°
升交点赤经 323.960°
平近点角 277.631°
近地点: 1184.4km
远地点: 1187.146km
周期: 109.114分钟
每日圈数: 13.197244
详细信息
平衡模式:
三轴稳定
覆盖范围:
全球
运营商:
一网卫星公司
运营商所在国:
英国
制造商(研发单位):
一网卫星公司
制造商所在国:
英国
使用方式:
暂无
卫星简介
OneWeb卫星网络由648颗重约125公斤的微型卫星组成,运行在1200公里的轨道上。 每颗卫星都能够提供至少每秒8千兆位的吞吐量,以使用其高吞吐量的Ku频段有效载荷为家庭和移动平台提供互联网接入。该卫星仍在工作。
2D轨道图
3D轨道图
轨道高度分析图
轨道倾角分析图
轨道综合分析图
查看轨道综合分析图